SCP
4 4 4 4 6 7 6 6 6 5 4 2 2 2 1 1 1 1 1 1 1 1 1 0 0 0 1 1 1 1 1 1 1 1 1 1 1 1 1 1 1 1 1
5 5 5 5 6 6 6 5 5 4 3 2 2 1 1 1 1 1 1 1 1 1 1 1 0 0 1 1 1 1 1 1 1 1 1 1 1 1 1 1 1 1 1
6 5 5 5 5 5 5 5 4 3 3 2 2 1 1 1 1 1 1 1 1 1 1 1 1 1 1 1 1 1 1 1 1 2 2 1 1 1 1 1 1 1 1
5 5 5 5 4 4 4 4 4 3 3 3 2 2 1 1 1 1 1 1 1 1 1 1 1 1 1 1 1 1 1 1 2 2 2 2 1 1 1 1 1 1 1
4 5 4 4 4 4 4 4 4 4 4 4 4 3 2 1 1 1 1 1 1 1 1 2 2 1 1 1 1 1 1 2 2 2 2 2 2 1 1 1 1 1 1
4 5 5 5 5 5 5 5 5 5 5 5 4 3 2 2 1 1 1 1 1 1 1 2 2 2 2 1 1 1 1 2 2 2 2 2 2 2 1 1 1 1 0
4 5 6 6 6 6 5 5 6 6 6 5 4 3 3 2 2 1 1 1 1 1 2 2 2 2 2 2 1 1 2 2 2 2 2 2 2 2 1 1 1 0 0
3 4 5 6 6 6 6 6 5 6 5 4 3 3 3 3 2 2 2 2 2 2 2 2 2 2 3 3 2 3 3 3 2 2 2 1 1 1 1 1 0 0 0
3 4 5 6 6 6 5 5 4 4 3 3 2 2 2 3 3 3 3 3 3 2 2 2 2 2 4 4 4 4 3 3 2 1 1 1 0 0 0 0 0 0 0
4 4 5 5 6 5 4 4 3 3 2 2 2 2 3 3 3 4 4 4 4 3 3 2 2 3 4 5 5 4 3 2 1 1 0 0 0 0 0 0 0 0 0
4 4 5 6 6 5 4 3 3 3 3 3 3 3 4 4 5 4 4 4 4 4 3 3 3 4 5 5 4 3 2 1 1 0 0 0 0 0 0 0 0 0 0
5 5 6 6 5 5 4 4 5 5 6 6 5 5 5 5 4 4 3 2 3 4 4 4 4 5 5 4 3 2 1 1 0 0 0 0 0 0 0 0 0 0 0
5 6 5 5 5 5 5 6 8 9 9 9 7 6 5 4 3 2 1 1 2 4 5 5 5 6 5 3 2 1 1 1 1 0 0 0 0 0 0 0 0 0 0
5 5 4 4 5 5 6 8 11 12 11 10 8 6 4 3 2 1 1 1 2 3 4 5 5 4 3 2 1 1 1 1 1 0 0 0 0 0 0 0 0 0 0
5 5 4 4 5 5 5 8 11 11 10 8 6 4 3 2 1 1 1 1 1 2 3 3 3 2 2 1 1 1 1 1 0 0 0 0 0 0 0 0 0 0 0
5 5 4 4 4 4 5 7 8 8 7 5 4 3 2 2 1 1 1 1 1 1 1 1 1 1 1 1 1 1 1 0 0 0 0 0 0 0 0 0 0 0 0
4 5 6 6 5 5 6 7 7 7 6 4 4 4 3 3 2 2 1 1 1 1 0 1 1 1 1 1 0 0 0 0 0 0 0 0 0 0 0 0 0 0 0
5 7 8 9 8 7 7 8 9 9 8 6 5 5 4 4 3 2 2 1 1 1 1 1 1 1 1 0 0 0 0 0 0 0 0 0 0 0 0 0 0 0 0
5 7 9 10 10 9 8 8 9 9 9 7 6 6 6 5 4 3 2 2 2 2 1 1 1 1 1 0 0 0 0 0 0 0 0 0 0 0 0 0 0 0 0
6 7 8 10 10 10 9 8 8 9 9 9 8 7 7 7 6 4 3 3 3 2 2 2 2 2 1 0 0 0 0 1 1 1 1 1 0 0 0 0 0 0 0
9 9 9 10 10 10 9 9 8 8 9 9 9 9 9 9 8 6 5 5 4 3 3 3 3 2 2 1 0 0 0 1 1 1 1 1 1 0 0 0 0 0 0
12 12 12 12 11 10 10 9 8 7 8 9 9 10 10 10 10 9 8 7 6 5 5 4 4 3 2 1 1 0 0 1 1 2 2 1 1 0 0 0 0 0 0
12 14 16 15 13 11 10 9 8 9 9 9 9 9 10 10 10 10 10 9 8 7 6 5 4 4 3 2 1 0 0 0 1 2 2 1 0 0 0 0 0 0 0
11 13 17 18 16 13 11 10 10 12 12 10 10 10 10 10 10 10 11 10 9 8 7 7 6 5 4 3 1 0 0 0 1 1 1 0 0 0 0 0 0 0 0
8 10 13 15 14 12 11 11 13 15 15 13 13 12 12 12 11 10 10 9 8 7 7 6 6 6 4 2 1 0 0 0 0 0 0 0 0 0 1 1 1 1 1
7 7 9 10 10 9 10 12 14 16 16 15 15 15 15 14 13 11 8 7 6 6 5 6 6 6 4 2 1 0 0 0 0 0 0 1 1 1 1 1 1 1 2
Wind_Speed
8 9 9 9 8 7 7 6 5 4 3 3 2 2 1 1 1 1 2 2 2 2 2 1 1 1 1 0 0 0 1 1 1 2 3 3 2 1 1 2 2 3 4
8 9 8 8 9 8 7 6 5 5 4 3 2 2 2 1 1 0 1 2 2 3 2 2 1 1 1 1 1 1 1 1 1 1 1 3 4 3 2 0 1 1 2
12 10 10 9 9 9 8 7 5 5 4 4 3 2 2 2 2 1 1 0 2 2 2 2 2 1 1 1 0 1 1 0 1 1 2 2 1 3 3 1 1 1 1
10 10 10 10 10 9 8 7 6 5 4 4 4 4 3 2 2 1 0 0 1 2 2 2 2 2 1 1 0 1 1 1 1 1 0 1 2 1 2 3 2 1 1
12 11 10 10 9 8 8 7 6 5 4 4 5 4 3 2 1 1 1 0 0 1 1 2 2 2 1 1 0 1 1 1 1 0 1 1 1 1 1 2 3 2 2
11 11 9 7 7 7 6 6 6 5 4 5 4 4 4 3 3 2 2 1 0 0 0 1 2 1 1 0 0 0 1 0 0 0 0 1 0 1 1 1 2 2 2
10 10 9 9 8 8 7 7 7 5 5 5 4 4 4 4 4 3 2 2 1 0 1 1 1 1 1 1 0 1 1 0 0 0 0 0 1 1 1 1 1 1 2
9 10 11 10 9 9 8 7 7 6 5 5 4 3 4 3 2 2 2 2 2 2 1 1 1 1 1 1 1 1 1 1 1 1 0 0 1 0 0 1 1 0 1
9 10 10 10 9 9 8 8 8 6 5 5 4 3 3 3 2 2 2 2 1 1 2 1 1 1 1 1 2 1 1 1 1 1 1 1 1 1 1 0 1 2 1
9 9 8 9 9 9 8 7 7 7 6 5 4 4 3 3 3 2 2 1 1 1 2 1 1 1 1 1 1 1 1 2 1 1 1 2 1 2 1 1 0 1 2
10 9 8 8 8 8 8 7 6 6 5 5 4 4 3 3 3 2 2 2 1 2 2 2 1 1 1 1 1 1 1 2 2 2 2 2 2 2 2 2 1 1 1
9 10 9 8 8 8 8 7 7 7 6 6 5 4 3 3 3 2 1 2 2 2 2 2 2 2 1 1 1 1 1 1 1 1 2 2 2 2 2 2 2 1 0
7 9 9 9 9 8 8 7 7 7 6 6 6 5 4 3 3 2 2 2 2 2 2 2 2 2 1 1 1 1 1 1 0 0 1 1 2 2 2 2 2 1 2
7 7 8 8 8 8 8 8 7 7 7 7 6 6 5 4 3 3 2 2 2 2 2 2 2 2 2 2 2 2 1 1 1 1 1 0 0 1 1 1 1 1 1
6 7 7 7 8 8 8 8 8 7 7 7 7 6 5 4 4 3 2 2 2 3 2 2 2 2 2 1 2 1 1 1 2 2 1 0 1 1 1 1 0 1 1
8 7 7 7 8 9 9 8 7 7 7 7 7 6 5 5 4 4 3 3 2 2 2 2 2 1 1 1 2 2 1 1 1 1 2 1 2 3 3 3 1 1 1
9 9 8 8 8 8 9 9 8 7 7 7 6 6 6 5 5 5 4 3 3 3 2 2 2 2 1 2 1 1 1 0 0 0 1 1 2 2 2 3 3 3 1
7 7 6 6 6 6 7 7 8 8 8 7 7 7 7 6 5 5 4 4 3 3 3 3 2 2 2 3 2 1 1 0 0 0 1 0 1 1 1 1 2 3 3
6 6 6 6 5 6 7 7 7 7 7 8 7 7 8 8 7 6 5 4 3 3 3 3 3 2 3 4 4 2 1 0 1 0 0 1 0 1 1 2 2 3 3
4 4 4 4 5 5 6 7 7 7 8 8 8 7 8 8 8 7 6 4 4 4 3 3 3 3 3 4 4 4 2 1 0 1 1 1 1 1 1 1 0 2 3
4 5 5 5 5 5 6 6 6 7 7 6 6 6 6 7 7 6 5 5 4 3 3 3 3 3 4 4 5 5 3 3 1 1 1 2 2 1 1 1 2 4 3
3 4 4 3 3 5 7 6 6 6 5 6 6 6 5 5 5 5 4 4 5 4 3 3 2 2 2 3 4 5 5 4 3 2 2 2 2 2 2 1 2 3 2
3 4 5 4 3 4 6 6 6 5 6 6 6 5 5 4 4 5 5 4 3 3 3 3 3 2 2 2 4 5 5 5 3 3 3 3 2 2 2 2 3 2 0
2 2 4 4 3 3 4 5 5 5 6 6 6 5 5 4 3 3 3 4 4 4 4 4 4 3 2 2 2 2 2 2 2 2 2 2 2 2 2 3 2 1 1
0 2 2 3 3 3 3 3 4 5 5 5 4 4 4 4 4 3 3 4 4 5 6 5 4 4 4 5 5 4 3 3 3 2 0 0 1 1 1 2 2 1 1
1 1 1 1 2 3 2 2 3 5 6 4 4 3 3 3 3 3 1 1 2 4 6 6 5 4 5 5 5 5 4 5 4 3 1 2 2 2 3 2 2 2 2
Wind_Direction
166 157 152 147 141 139 138 142 138 138 134 132 136 134 139 130 118 152 153 148 140 127 126 120 108 98 96 113 82 51 6 345 5 32 352 341 337 325 236 203 182 204 208
154 153 150 150 151 152 152 148 146 147 148 151 154 152 144 150 149 86 100 125 132 130 135 129 133 130 99 63 53 64 32 339 28 98 58 356 347 338 336 40 168 220 206
162 160 155 157 154 155 159 155 155 149 146 136 119 104 77 54 44 37 39 36 119 129 126 137 133 118 118 122 59 89 114 344 332 91 132 134 252 306 326 330 322 291 209
159 160 160 159 162 164 160 154 153 149 145 136 129 134 139 152 189 185 177 42 104 129 127 122 129 125 123 121 264 94 127 122 348 334 356 177 178 174 312 326 324 302 256
160 162 164 162 162 161 162 159 150 148 145 144 144 142 143 156 149 123 118 109 86 151 141 128 121 116 117 137 116 86 86 120 135 328 325 358 17 152 165 287 314 328 300
159 158 156 150 149 149 154 155 150 153 151 147 143 144 145 140 131 132 140 170 218 223 173 133 125 121 107 84 283 136 115 120 117 71 66 129 170 244 182 224 275 296 299
158 154 153 159 160 156 160 158 153 155 157 151 151 153 149 147 151 160 168 170 175 194 228 146 140 134 141 174 113 107 67 72 97 153 250 227 225 210 180 181 237 274 298
163 163 165 164 163 163 163 159 159 160 164 159 159 154 148 147 154 163 167 172 182 193 176 151 145 135 119 94 83 76 46 62 45 24 1 328 303 301 180 181 177 290 315
170 170 167 163 160 160 163 160 154 151 155 156 148 140 141 140 147 154 153 161 176 170 147 150 130 93 71 79 92 74 39 41 18 333 350 359 332 339 321 232 161 164 210
174 170 166 164 160 161 158 154 154 154 148 145 150 146 143 141 138 133 144 145 162 145 127 121 107 87 66 66 74 58 28 50 26 14 23 7 345 351 346 348 14 160 176
173 170 165 163 158 155 156 158 156 150 150 153 151 143 141 141 136 138 149 144 126 116 122 134 120 100 74 64 64 37 43 54 35 25 37 12 1 357 350 359 8 8 146
171 166 160 156 156 161 162 162 161 162 163 158 150 148 145 143 141 138 139 124 118 119 119 118 110 100 85 75 84 57 50 66 51 27 46 15 14 9 356 2 359 344 293
159 159 158 161 163 165 165 165 168 167 162 156 153 153 152 152 160 157 142 130 132 123 111 108 110 101 84 81 72 83 62 64 59 82 80 358 19 4 348 356 356 341 358
154 155 165 168 167 167 166 166 168 166 161 158 157 160 168 173 172 160 148 147 144 132 126 124 126 121 104 93 79 71 55 33 20 43 101 268 350 300 316 349 348 2 15
161 162 166 171 171 168 168 167 168 167 165 162 165 172 174 170 166 157 154 143 141 145 144 131 123 123 119 107 92 82 74 51 22 9 4 325 33 20 7 17 335 41 37
167 167 168 171 175 175 172 169 170 171 166 166 174 174 169 164 163 161 154 144 148 147 137 138 137 130 135 123 114 110 95 65 48 356 344 355 34 13 9 12 20 123 157
170 171 178 181 180 181 175 174 174 170 169 172 173 172 172 168 171 165 154 164 171 163 159 164 158 170 204 185 157 125 124 130 218 263 349 5 25 27 18 358 6 8 337
169 174 177 182 179 176 173 171 167 168 171 175 177 176 176 178 174 167 171 180 180 178 181 185 186 185 213 196 183 150 112 65 331 196 178 164 344 351 16 24 19 357 349
179 178 176 172 167 171 170 164 169 172 174 180 183 182 180 178 177 179 185 187 184 185 190 190 187 187 225 213 199 170 121 85 310 286 151 163 216 317 18 64 24 348 331
175 168 160 155 164 176 165 163 173 177 186 190 188 185 182 180 184 188 186 186 184 192 189 195 199 196 211 210 198 178 150 151 275 316 272 232 205 337 18 93 38 312 300
185 165 157 167 179 172 158 166 173 189 195 185 177 179 183 184 186 184 182 176 180 183 189 198 215 211 210 214 205 187 174 183 200 241 265 266 261 281 289 223 220 247 273
166 161 155 168 177 168 161 169 189 197 183 172 173 178 182 189 182 174 176 174 173 178 187 188 216 235 227 217 211 201 199 194 190 227 245 254 255 264 274 262 257 273 288
165 163 160 168 183 177 165 177 196 181 165 165 173 177 179 183 172 173 178 176 180 184 189 188 206 235 236 230 217 209 208 208 206 227 236 246 267 295 297 287 288 298 240
160 158 151 166 191 189 175 184 181 162 157 166 174 172 172 176 174 174 174 180 187 190 193 197 207 218 224 228 222 219 213 216 224 240 255 268 280 289 285 301 313 290 216
120 145 158 175 188 169 161 165 158 151 153 163 168 169 173 173 171 174 183 188 202 196 191 201 200 199 219 229 215 201 207 207 209 179 122 329 314 309 307 308 301 301 301
65 99 117 143 139 139 151 157 154 152 152 158 165 166 162 161 161 159 140 338 223 218 207 206 201 210 216 206 201 211 217 213 186 149 185 234 235 240 247 257 280 290 276